Weather History for KGRB - June, 2013

Change the Weather History Date:

Monday, June 24, 2013

  Actual Average Record
Temperature  
Mean Temperature 77 °F 67 °F  
Max Temperature 83 °F 78 °F 95 °F (1937)
Min Temperature 70 °F 57 °F 43 °F (1887)
Degree Days  
Heating Degree Days 0 2  
Month to date heating degree days 72 84  
Since 1 June heating degree days 72 84  
Since 1 July heating degree days 7714 7947  
Cooling Degree Days 12 4  
Month to date cooling degree days 62 58  
Year to date cooling degree days 100 76  
Since 1 June cooling degree days 62 58  
Growing Degree Days 26 (Base 50)    
Moisture  
Dew Point 68 °F    
Average Humidity 76    
Maximum Humidity 90    
Minimum Humidity 62    
Precipitation  
Precipitation 0.06 in 0.13 in 1.52 in (1940)
Month to date precipitation 3.11 3.13  
Year to date precipitation 16.88 12.78  
Snow  
Snow 0.00 in 0.00 in 0.00 in ()
Month to date snowfall 0.0 0.0  
Since 1 June snowfall 0.0 0.0  
Since 1 July snowfall 74.2 51.4  
Snow Depth 0.00 in    
Sea Level Pressure  
Sea Level Pressure 29.91 in    
Wind  
Wind Speed 8 mph (SSW)    
Max Wind Speed 17 mph    
Max Gust Speed 25 mph    
Visibility 10 miles    
Events Rain    
T = Trace of Precipitation, MM = Missing Value Source: NWS Daily Summary

Daily Weather History Graph

Daily Weather History Graph

Search for Another Location

Airport or City:

Trip Planner

Search our weather history database for the weather conditions in past years. The results will help you decide how hot, cold, wet, or windy it might be!

Date:

Astronomy

Jun. 24, 2013 Rise Set
Actual Time 5:08 AM CDT 8:41 PM CDT
Civil Twilight 4:31 AM CDT 9:18 PM CDT
Nautical Twilight 3:43 AM CDT 10:06 PM CDT
Astronomical Twilight 2:39 AM CDT 11:09 PM CDT
Moon 9:37 PM CDT (6/24) 6:40 AM CDT (6/24)
Length of Visible Light 16h 46m
Length of Day
15h 32m
Full, 98% of the Moon is Illuminated
Jun 24
Full
Jun 29
Last Quarter
Jul 8
New
Jul 15
First Quarter
Jul 22
Full

Hourly Weather History & Observations

Time (CDT) Temp. Heat Index Dew Point Humidity Pressure Visibility Wind Dir Wind Speed Gust Speed Precip Events Conditions
12:53 AM 73.0 °F - 64.9 °F 76% 29.91 in 10.0 mi SW 8.1 mph - N/A   Clear
1:53 AM 73.0 °F - 66.0 °F 79% 29.91 in 10.0 mi SW 9.2 mph - N/A   Clear
2:53 AM 71.1 °F - 66.0 °F 84% 29.91 in 10.0 mi SW 6.9 mph - N/A   Clear
3:53 AM 70.0 °F - 66.0 °F 87% 29.91 in 10.0 mi SSW 6.9 mph - N/A   Clear
4:53 AM 70.0 °F - 66.0 °F 87% 29.91 in 10.0 mi SSW 6.9 mph - N/A   Clear
5:53 AM 70.0 °F - 66.0 °F 87% 29.93 in 8.0 mi SSW 4.6 mph - N/A   Clear
6:53 AM 71.1 °F - 66.9 °F 87% 29.94 in 9.0 mi SSW 4.6 mph - N/A   Clear
7:53 AM 73.9 °F - 66.9 °F 79% 29.95 in 10.0 mi SW 8.1 mph - N/A   Clear
8:53 AM 75.9 °F - 68.0 °F 76% 29.96 in 10.0 mi SW 5.8 mph - N/A   Overcast
9:53 AM 75.9 °F - 68.0 °F 76% 29.95 in 8.0 mi SW 4.6 mph - N/A   Partly Cloudy
10:53 AM 79.0 °F - 69.1 °F 72% 29.96 in 9.0 mi SSW 6.9 mph - N/A   Mostly Cloudy
11:30 AM 78.1 °F - 70.0 °F 76% 29.97 in 10.0 mi SSW 13.8 mph - N/A   Overcast
11:49 AM 78.8 °F - 69.8 °F 74% 29.97 in 9.0 mi SSW 11.5 mph - N/A   Scattered Clouds
11:53 AM 79.0 °F - 70.0 °F 74% 29.96 in 10.0 mi SSW 13.8 mph 18.4 mph N/A   Scattered Clouds
12:53 PM 80.1 °F 83.2 °F 70.0 °F 71% 29.94 in 9.0 mi Variable 6.9 mph - N/A   Mostly Cloudy
1:53 PM 81.0 °F 84.4 °F 70.0 °F 69% 29.93 in 10.0 mi SW 11.5 mph - N/A   Mostly Cloudy
2:19 PM 81.0 °F 84.1 °F 69.1 °F 67% 29.91 in 10.0 mi WSW 12.7 mph - N/A   Mostly Cloudy
2:53 PM 82.0 °F 85.9 °F 70.0 °F 67% 29.87 in 10.0 mi SSW 10.4 mph - N/A   Partly Cloudy
3:53 PM 82.0 °F 84.9 °F 68.0 °F 62% 29.88 in 10.0 mi SSW 11.5 mph - N/A   Clear
4:53 PM 81.0 °F 83.0 °F 66.0 °F 60% 29.87 in 10.0 mi SSW 10.4 mph - N/A   Partly Cloudy
5:53 PM 80.1 °F 82.3 °F 66.9 °F 64% 29.86 in 10.0 mi SSW 13.8 mph - N/A   Clear
6:53 PM 78.1 °F - 66.9 °F 68% 29.86 in 10.0 mi SSW 10.4 mph - N/A   Clear
7:53 PM 77.0 °F - 68.0 °F 74% 29.85 in 10.0 mi SW 5.8 mph - N/A   Clear
8:53 PM 73.9 °F - 68.0 °F 82% 29.83 in 10.0 mi South 4.6 mph - N/A   Clear
9:53 PM 73.0 °F - 68.0 °F 84% 29.85 in 10.0 mi South 4.6 mph - N/A   Clear
10:53 PM 73.0 °F - 68.0 °F 84% 29.85 in 10.0 mi South 3.5 mph - N/A   Mostly Cloudy
11:53 PM 73.0 °F - 68.0 °F 84% 29.87 in 7.0 mi SSW 5.8 mph - 0.03 in Rain Light Rain